{"data":{"norad_id":57970,"epoch":"2026-09-19T03:52:51.645504Z","epoch_age_seconds":253288,"freshness":"STALE","line1":"1 57970U 23151G   26262.16170886  .00001906  00000+0  78798-4 0  9993","line2":"2 57970  43.0052 177.9240 0001823 242.1511 117.9156 15.27567053167043","mean_motion":15.27567053,"eccentricity":0.0001823,"inclination_deg":43.0052,"raan_deg":177.924,"arg_perigee_deg":242.1511,"mean_anomaly_deg":117.9156,"bstar":7.8798e-5,"rev_number":16704,"period_min":94.267547677987,"perigee_km":481.83706299637,"apogee_km":484.33866558189,"semimajor_km":6861.2248642891,"source":"CELESTRAK","updated_at":"2026-09-21T09:00:33.749521Z"}}